[[{"header":{"parameterUnit":"m.s-1","parameterCategory":1,"la1":30.2991,"la2":30.254,"lo1":-89.0895,"lo2":-89.0444,"dy":0.0017,"dx":0.0017,"nx":28,"ny":28,"refTime":"2024-08-22T03:00:00:Z","depth":0,"parameterNumber":2,"parameterNumberName":"U-component_of_WINDS"},"data":[0,0,0,0,0,0,0,0,0,0,0,0,0,0,0,0,0,0,0,0,0,0,0,0,0,0,0,0,0,0,0,0,0,0,0,0,0,0,0,0,0,0,0,0,0,0,0,0,0,0,0,0,0,0,0,0,0,0,-0.307,-0.3068,0,-0.2929,-0.2928,-0.2926,-0.2888,-0.2889,-0.289,-0.2891,-0.2748,-0.2743,-0.2739,0,0,0,0,0,0,0,0,0,0,0,0,0,-0.3309,-0.3304,-0.307,-0.3068,-0.3067,-0.293,-0.2928,-0.2926,-0.2888,-0.2889,-0.289,-0.2891,-0.2749,-0.2744,-0.2738,0,0,0,0,0,0,0,0,0,0,0,0,0,-0.319,-0.3303,-0.307,-0.3031,-0.3026,-0.293,-0.2928,-0.2925,-0.2888,-0.2889,-0.2891,-0.2892,-0.2751,-0.2744,-0.2738,-0.267,0,0,-0.2717,-0.2714,0,0,0,0,0,0,0,0,-0.3197,-0.3182,-0.3039,-0.3034,-0.3028,-0.2928,-0.2959,-0.284,-0.2888,-0.2941,-0.2891,-0.2892,-0.2807,-0.2795,-0.2766,-0.2664,-0.2657,-0.2716,-0.2712,-0.2709,-0.2707,0,0,0,0,0,0,0,-0.3205,-0.3187,-0.3014,-0.3037,-0.303,-0.3022,-0.3006,-0.2936,-0.2868,-0.2936,-0.2933,-0.2917,-0.2804,-0.2773,-0.2763,-0.2655,-0.2716,-0.271,-0.2706,-0.2703,-0.2493,-0.2492,0,0,0,0,0,0,-0.322,-0.3194,-0.3019,-0.301,-0.3117,-0.3016,-0.2999,-0.2959,-0.2869,-0.2857,-0.2916,-0.2916,-0.2784,-0.2771,-0.2757,-0.2674,-0.2709,-0.2703,-0.2699,-0.2494,-0.2493,-0.2491,0,0,0,0,0,0,-0.3225,-0.3205,-0.3025,-0.3101,-0.3078,-0.3011,-0.2966,-0.2955,-0.2924,-0.2854,-0.2842,-0.2897,-0.2785,-0.2767,-0.2693,-0.2669,-0.2699,-0.2693,-0.2496,-0.2494,-0.2492,-0.2506,0,0,0,0,0,0,-0.3232,-0.3207,-0.318,-0.3101,-0.3074,-0.2961,-0.2964,-0.2952,-0.2912,-0.2911,-0.2832,-0.2821,-0.2784,-0.2703,-0.2686,-0.266,-0.2688,-0.2498,-0.2495,-0.2493,-0.2508,-0.2505,-0.2502,0,0,0,0,0,-0.3241,-0.3189,-0.3179,-0.3158,-0.3039,-0.296,-0.2945,-0.2903,-0.291,-0.2883,-0.2839,-0.2823,-0.2674,-0.2696,-0.2676,-0.2647,-0.2499,-0.2496,-0.2493,-0.2509,-0.2505,-0.2503,0,0,0,0,0,0,-0.3266,-0.3178,-0.3165,-0.3086,-0.3031,-0.2954,-0.2918,-0.2901,-0.2842,-0.2843,-0.2795,-0.2778,-0.2707,-0.267,-0.2696,-0.2579,-0.2587,-0.2579,-0.2606,-0.2602,-0.2599,-0.261,-0.2682,0,0,0,0,0,-0.3263,-0.3206,-0.3132,-0.307,-0.3042,-0.2985,-0.2949,-0.2923,-0.2864,-0.284,-0.279,-0.2733,-0.2674,-0.2636,-0.2577,-0.2502,-0.2486,-0.2473,-0.2471,-0.2469,-0.2463,-0.2423,-0.2417,-0.248,-0.248,-0.248,0,0,-0.3255,-0.32,-0.3166,-0.3073,-0.3027,-0.297,-0.2966,-0.2905,-0.2863,-0.2831,-0.2758,-0.2719,-0.2653,-0.2579,-0.2544,-0.2546,-0.2442,-0.2465,-0.2464,-0.2459,-0.2419,-0.2413,-0.2408,-0.2478,-0.2479,-0.2479,0,0,-0.3211,-0.3163,-0.3107,-0.3061,-0.2992,-0.2954,-0.2941,-0.2867,-0.284,-0.2766,-0.2741,-0.2691,-0.2589,-0.2544,-0.2507,-0.245,-0.2434,-0.2432,-0.2418,-0.238,-0.2375,-0.237,-0.2351,-0.2344,-0.2426,-0.2426,-0.2426,0,-0.321,-0.3123,-0.308,-0.3021,-0.2982,-0.2951,-0.2894,-0.2852,-0.2767,-0.2741,-0.2745,-0.2618,-0.2571,-0.2487,-0.2473,-0.2444,-0.2429,-0.244,-0.2379,-0.2374,-0.2369,-0.235,-0.2343,-0.2427,-0.2427,-0.2427,-0.2427,0,-0.3126,-0.3066,-0.3028,-0.2948,-0.2904,-0.2847,-0.2796,-0.2758,-0.2735,-0.2698,-0.2625,-0.2568,-0.2498,-0.2476,-0.2453,-0.2389,-0.2393,-0.2388,-0.2395,-0.2364,-0.2345,-0.2338,-0.2427,-0.2427,-0.2427,-0.2427,0,0,-0.3093,-0.2991,-0.2978,-0.2942,-0.2864,-0.2817,-0.2759,-0.2691,-0.2659,-0.2603,-0.2554,-0.247,-0.2466,-0.2425,-0.2397,-0.2363,-0.2323,-0.2362,-0.236,-0.2358,-0.2251,-0.2255,-0.2247,-0.2312,-0.2311,-0.2309,-0.2257,0,-0.304,-0.2935,-0.2896,-0.281,-0.2755,-0.2726,-0.2676,-0.2623,-0.2588,-0.2537,-0.2497,-0.2439,-0.2437,-0.2413,-0.2378,-0.2335,-0.2301,-0.2338,-0.2267,-0.2265,-0.2285,-0.2237,-0.2241,-0.2194,-0.2249,-0.2248,-0.2247,0,-0.2964,-0.2907,-0.2816,-0.2747,-0.2722,-0.2678,-0.2613,-0.2564,-0.2505,-0.2482,-0.2438,-0.2413,-0.2352,-0.2364,-0.2281,-0.2308,-0.2277,-0.2252,-0.2249,-0.2241,-0.2254,-0.2229,-0.2178,-0.2171,-0.2235,-0.2236,-0.2236,0,-0.2951,-0.2851,-0.2784,-0.2754,-0.2671,-0.2641,-0.2606,-0.2548,-0.251,-0.2454,-0.243,-0.2368,-0.2334,-0.2287,-0.2247,-0.2258,-0.2169,-0.2176,-0.2149,-0.215,-0.2131,-0.2133,-0.2075,-0.211,-0.211,-0.2111,-0.2111,0,-0.2897,-0.2842,-0.2778,-0.2736,-0.2675,-0.2632,-0.2573,-0.2535,-0.2485,-0.2437,-0.2408,-0.2364,-0.2313,-0.2263,-0.2231,-0.2169,-0.2153,-0.2134,-0.2126,-0.2137,-0.2139,-0.2116,-0.2118,-0.2109,-0.2109,-0.2109,-0.211,0,-0.2871,-0.2826,-0.2751,-0.2679,-0.266,-0.2618,-0.2558,-0.2517,-0.2481,-0.2421,-0.2405,-0.2348,-0.2288,-0.2243,-0.2165,-0.2144,-0.2078,-0.2069,-0.2098,-0.2094,-0.207,-0.2073,-0.1995,-0.1983,-0.2026,-0.2026,-0.2025,0,-0.284,-0.2797,-0.2722,-0.2688,-0.2652,-0.2597,-0.2559,-0.2515,-0.2477,-0.2408,-0.2376,-0.2314,-0.2262,-0.2167,-0.212,-0.2061,-0.2051,-0.2028,-0.2042,-0.2055,-0.2052,-0.2055,-0.2052,-0.2026,-0.2026,-0.2026,-0.2025,0,-0.2789,-0.2769,-0.2715,-0.2653,-0.2608,-0.2557,-0.2506,-0.248,-0.2428,-0.2386,-0.2324,-0.2284,-0.2205,-0.2144,-0.2081,-0.2045,-0.2027,-0.2022,-0.2012,-0.2023,-0.2041,-0.2032,-0.2093,-0.2023,-0.2024,-0.2024,-0.2024,-0.2024,-0.276,-0.2722,-0.2663,-0.2604,-0.2561,-0.2515,-0.2474,-0.2433,-0.238,-0.2312,-0.229,-0.2227,-0.2171,-0.2084,-0.2048,-0.1999,-0.1999,-0.1985,-0.1982,-0.198,-0.1981,-0.2049,-0.1987,-0.1987,-0.1987,-0.1987,-0.1987,0,-0.2709,-0.267,-0.2616,-0.2546,-0.25,-0.2487,-0.243,-0.2393,-0.2338,-0.2287,-0.2237,-0.2167,-0.2108,-0.2057,-0.1997,-0.1967,-0.1958,-0.1953,-0.1955,-0.1948,-0.1983,-0.1998,-0.1962,-0.1962,-0.1962,-0.1962,-0.1962,-0.1962,-0.2677,-0.2612,-0.2585,-0.25,-0.2461,-0.2398,-0.2368,-0.2325,-0.2285,-0.2208,-0.2159,-0.2126,-0.2076,-0.2012,-0.1959,-0.1945,-0.1925,-0.1923,-0.1907,-0.1942,-0.1945,-0.1948,-0.1961,-0.1918,-0.1918,-0.1876,-0.1875,-0.1875]},{"header":{"parameterUnit":"m.s-1","parameterCategory":1,"la1":30.2991,"la2":30.254,"lo1":-89.0895,"lo2":-89.0444,"dy":0.0017,"dx":0.0017,"nx":28,"ny":28,"refTime":"2024-08-22T03:00:00:Z","depth":0,"parameterNumber":3,"parameterNumberName":"V-component_of_WINDS"},"data":[0,0,0,0,0,0,0,0,0,0,0,0,0,0,0,0,0,0,0,0,0,0,0,0,0,0,0,0,0,0,0,0,0,0,0,0,0,0,0,0,0,0,0,0,0,0,0,0,0,0,0,0,0,0,0,0,0,0,1.3676,1.3678,0,1.3867,1.387,1.3872,1.3893,1.3891,1.3889,1.3888,1.4087,1.4094,1.4101,0,0,0,0,0,0,0,0,0,0,0,0,0,1.3329,1.3335,1.3676,1.3678,1.3681,1.3867,1.387,1.3872,1.3894,1.3891,1.3889,1.3887,1.4085,1.4093,1.4101,0,0,0,0,0,0,0,0,0,0,0,0,0,1.3496,1.3337,1.3675,1.3714,1.3719,1.3867,1.387,1.3873,1.3894,1.3891,1.3888,1.3886,1.4082,1.4092,1.4103,1.4226,0,0,1.4135,1.414,0,0,0,0,0,0,0,0,1.3486,1.3508,1.3706,1.3711,1.3718,1.3853,1.382,1.3992,1.3895,1.3828,1.3888,1.3884,1.4012,1.4028,1.407,1.4236,1.4244,1.4136,1.4143,1.4147,1.415,0,0,0,0,0,0,0,1.3475,1.35,1.3752,1.3709,1.3716,1.3721,1.3742,1.3853,1.3934,1.3833,1.3835,1.3858,1.4014,1.406,1.4075,1.4247,1.4136,1.4145,1.4152,1.4156,1.4517,1.452,0,0,0,0,0,0,1.3456,1.3491,1.3746,1.3758,1.3592,1.373,1.3753,1.3813,1.3933,1.3948,1.386,1.3858,1.4043,1.4063,1.4082,1.4231,1.4147,1.4157,1.4163,1.4514,1.4518,1.4521,0,0,0,0,0,0,1.3448,1.3478,1.3738,1.3625,1.3658,1.3739,1.3806,1.3818,1.3864,1.3953,1.3967,1.3892,1.4042,1.4067,1.4189,1.4238,1.4162,1.4172,1.451,1.4515,1.452,1.4531,0,0,0,0,0,0,1.3438,1.3475,1.3524,1.3625,1.3664,1.3841,1.3809,1.3824,1.3882,1.3881,1.3986,1.4001,1.4041,1.4173,1.4199,1.4251,1.418,1.4506,1.4512,1.4518,1.4526,1.4535,1.4543,0,0,0,0,0,1.3426,1.3521,1.3526,1.3557,1.3726,1.3844,1.3866,1.391,1.3886,1.3934,1.399,1.3997,1.4228,1.4185,1.4215,1.4271,1.4503,1.4511,1.4518,1.4523,1.4534,1.4543,0,0,0,0,0,0,1.3426,1.3535,1.3542,1.3673,1.3749,1.3848,1.3911,1.3921,1.4007,1.4003,1.4054,1.4078,1.4196,1.4246,1.4196,1.4394,1.4363,1.4377,1.4357,1.4368,1.4376,1.4361,1.4189,0,0,0,0,0,1.344,1.3527,1.3619,1.3726,1.3763,1.383,1.3883,1.391,1.3991,1.4024,1.4089,1.4168,1.4257,1.4316,1.4404,1.4534,1.4555,1.4587,1.4595,1.4602,1.4612,1.468,1.4693,1.4545,1.4545,1.4545,0,0,1.3473,1.3543,1.3596,1.3727,1.3789,1.3876,1.3857,1.3952,1.4017,1.4039,1.4155,1.4206,1.4297,1.4421,1.448,1.4467,1.4658,1.4611,1.4615,1.4623,1.4688,1.4702,1.4715,1.455,1.4549,1.4548,0,0,1.3576,1.3639,1.3732,1.3794,1.3886,1.3929,1.3952,1.4048,1.4081,1.4199,1.4216,1.4294,1.4449,1.4512,1.4564,1.4685,1.4693,1.4712,1.4755,1.482,1.4832,1.4843,1.4882,1.4896,1.4723,1.4723,1.4723,0,1.3604,1.3736,1.378,1.3872,1.3928,1.3949,1.4043,1.4101,1.4218,1.4256,1.4239,1.443,1.4494,1.463,1.4659,1.4702,1.4727,1.47,1.4827,1.4838,1.4848,1.4886,1.4901,1.4724,1.4724,1.4724,1.4724,0,1.3765,1.3856,1.392,1.4029,1.4093,1.4186,1.4242,1.4301,1.4321,1.4365,1.4483,1.4559,1.466,1.4695,1.4718,1.4834,1.4823,1.4816,1.4786,1.4863,1.4899,1.4915,1.4726,1.4726,1.4725,1.4725,0,0,1.3875,1.4003,1.4026,1.4073,1.4175,1.4246,1.4338,1.4435,1.4483,1.4563,1.4639,1.4768,1.476,1.4819,1.4849,1.4906,1.4991,1.4892,1.4895,1.4905,1.512,1.5122,1.5138,1.4998,1.5001,1.5003,1.511,0,1.3986,1.415,1.419,1.433,1.4412,1.4431,1.4511,1.4581,1.4624,1.47,1.4749,1.4837,1.4823,1.4857,1.4915,1.4968,1.5035,1.4962,1.5068,1.5071,1.5042,1.5158,1.5162,1.526,1.5125,1.5128,1.513,0,1.4139,1.4218,1.4365,1.4451,1.4487,1.4558,1.4647,1.4721,1.4799,1.4826,1.4889,1.4912,1.5007,1.4972,1.5102,1.5051,1.5097,1.5129,1.5134,1.5144,1.5104,1.5168,1.5293,1.5306,1.5154,1.5152,1.515,0,1.4199,1.4343,1.4448,1.4488,1.4593,1.4641,1.4687,1.4763,1.4817,1.4896,1.493,1.502,1.5068,1.5136,1.5181,1.5152,1.5305,1.5276,1.5329,1.5327,1.5359,1.5356,1.549,1.5393,1.5393,1.5393,1.5392,0,1.4318,1.4406,1.4475,1.454,1.4638,1.4682,1.4778,1.4825,1.4891,1.4964,1.4987,1.5055,1.5111,1.5186,1.5222,1.5322,1.5345,1.5368,1.5376,1.5364,1.5361,1.5393,1.5387,1.5396,1.5396,1.5395,1.5394,0,1.4402,1.4452,1.4567,1.4654,1.4678,1.4746,1.4821,1.4884,1.4926,1.5017,1.5041,1.5108,1.5197,1.5248,1.5362,1.5386,1.5495,1.5502,1.5468,1.5471,1.5519,1.5512,1.5677,1.5699,1.5589,1.559,1.5591,0,1.4473,1.4541,1.4634,1.4683,1.4729,1.4809,1.4863,1.4908,1.4963,1.5055,1.5106,1.5196,1.527,1.5411,1.5469,1.5555,1.5562,1.5613,1.5575,1.5559,1.5558,1.5552,1.5557,1.5619,1.562,1.5621,1.5621,0,1.4593,1.4613,1.4689,1.4773,1.4836,1.4905,1.4974,1.5013,1.5069,1.513,1.5219,1.5277,1.539,1.5477,1.5567,1.5614,1.5626,1.5633,1.5649,1.5637,1.5613,1.5622,1.5482,1.5629,1.5628,1.5627,1.5627,1.5627,1.467,1.4729,1.4802,1.4886,1.4941,1.5003,1.5064,1.5113,1.5188,1.5282,1.5305,1.5398,1.5472,1.5592,1.5641,1.5714,1.5705,1.5729,1.5735,1.574,1.5739,1.5602,1.5731,1.5731,1.5731,1.573,1.573,0,1.4788,1.4835,1.4911,1.5004,1.5068,1.5073,1.5148,1.5201,1.5283,1.535,1.542,1.5521,1.5606,1.5669,1.5755,1.5801,1.5808,1.5821,1.5817,1.5827,1.5744,1.572,1.5813,1.5813,1.5813,1.5813,1.5813,1.5813,1.4857,1.4955,1.4983,1.5108,1.5155,1.5245,1.5287,1.5344,1.5396,1.5507,1.5577,1.5617,1.5681,1.5771,1.5847,1.5864,1.5893,1.5905,1.5921,1.5842,1.5833,1.5825,1.5802,1.5911,1.5911,1.5998,1.5999,1.5999]}]]